Time,TemperatureF,DewpointF,PressureIn,WindDirection,WindDirectionDegrees,WindSpeedMPH,WindSpeedGustMPH,Humidity,HourlyPrecipIn,Conditions,Clouds,dailyrainin,SoftwareType,DateUTC
2013-07-16 00:01:00,76.1,71.6,30.24,East,91,0.0,0.0,86,0.00,,,0.01,VWS V14.01,2013-07-16 04:01:00,
2013-07-16 00:06:00,75.9,71.8,30.24,East,92,0.0,0.0,87,0.00,,,0.00,VWS V14.01,2013-07-16 04:06:00,
2013-07-16 00:11:00,75.7,71.6,30.24,East,92,0.0,0.0,87,0.00,,,0.00,VWS V14.01,2013-07-16 04:11:00,
2013-07-16 00:16:00,75.8,72.0,30.24,East,92,0.0,0.0,88,0.00,,,0.00,VWS V14.01,2013-07-16 04:16:00,
2013-07-16 00:21:00,75.8,71.7,30.24,East,92,0.0,0.0,87,0.00,,,0.00,VWS V14.01,2013-07-16 04:21:00,
2013-07-16 00:26:00,75.8,71.7,30.24,East,92,0.0,0.0,87,0.00,,,0.00,VWS V14.01,2013-07-16 04:26:00,
2013-07-16 00:31:00,75.7,71.9,30.24,East,91,0.0,0.0,88,0.00,,,0.00,VWS V14.01,2013-07-16 04:31:00,
2013-07-16 00:36:00,75.6,71.8,30.24,East,92,0.0,0.0,88,0.00,,,0.00,VWS V14.01,2013-07-16 04:36:00,
2013-07-16 00:41:00,75.4,71.6,30.24,East,92,0.0,0.0,88,0.00,,,0.00,VWS V14.01,2013-07-16 04:41:00,
2013-07-16 00:46:00,75.3,71.8,30.24,East,92,0.0,0.0,89,0.00,,,0.00,VWS V14.01,2013-07-16 04:46:00,
2013-07-16 00:51:00,75.2,72.1,30.24,East,92,0.0,0.0,90,0.00,,,0.00,VWS V14.01,2013-07-16 04:51:00,
2013-07-16 00:56:00,75.1,72.0,30.24,East,91,0.0,0.0,90,0.00,,,0.00,VWS V14.01,2013-07-16 04:56:00,
2013-07-16 01:01:00,75.0,71.9,30.24,East,92,0.0,0.0,90,0.00,,,0.00,VWS V14.01,2013-07-16 05:01:00,
2013-07-16 01:06:00,74.9,71.8,30.24,SE,146,0.0,0.0,90,0.00,,,0.00,VWS V14.01,2013-07-16 05:06:00,
2013-07-16 01:11:00,74.9,71.4,30.24,SSE,153,0.0,2.0,89,0.00,,,0.00,VWS V14.01,2013-07-16 05:11:00,
2013-07-16 01:16:00,74.9,71.4,30.24,SSE,152,0.0,2.0,89,0.00,,,0.00,VWS V14.01,2013-07-16 05:16:00,
2013-07-16 01:21:00,74.8,71.3,30.24,SSE,152,0.0,2.0,89,0.00,,,0.00,VWS V14.01,2013-07-16 05:21:00,
2013-07-16 01:26:00,74.9,71.4,30.24,SSE,152,0.0,2.0,89,0.00,,,0.00,VWS V14.01,2013-07-16 05:26:00,
2013-07-16 01:31:00,74.8,71.3,30.24,SW,215,0.0,2.0,89,0.00,,,0.00,VWS V14.01,2013-07-16 05:31:00,
2013-07-16 01:36:00,74.8,71.3,30.24,SE,145,0.0,0.0,89,0.00,,,0.00,VWS V14.01,2013-07-16 05:36:00,
2013-07-16 01:41:00,74.8,71.3,30.24,SSE,147,0.0,0.0,89,0.00,,,0.00,VWS V14.01,2013-07-16 05:41:00,
2013-07-16 01:46:00,74.7,71.6,30.24,SE,145,0.0,0.0,90,0.00,,,0.00,VWS V14.01,2013-07-16 05:46:00,
2013-07-16 01:51:00,74.5,71.4,30.24,SE,145,0.0,0.0,90,0.00,,,0.00,VWS V14.01,2013-07-16 05:51:00,
2013-07-16 01:56:00,74.5,71.4,30.24,SE,130,0.0,0.0,90,0.00,,,0.00,VWS V14.01,2013-07-16 05:56:00,
2013-07-16 02:01:00,74.5,71.4,30.24,SE,129,0.0,0.0,90,0.00,,,0.00,VWS V14.01,2013-07-16 06:01:00,
2013-07-16 02:06:00,74.4,71.6,30.24,SE,129,0.0,0.0,91,0.00,,,0.00,VWS V14.01,2013-07-16 06:06:00,
2013-07-16 02:11:00,74.4,71.6,30.24,SE,130,0.0,0.0,91,0.00,,,0.00,VWS V14.01,2013-07-16 06:11:00,
2013-07-16 02:16:00,74.5,71.4,30.24,SE,129,0.0,0.0,90,0.00,,,0.00,VWS V14.01,2013-07-16 06:16:00,
2013-07-16 02:21:00,74.5,71.4,30.24,SE,129,0.0,0.0,90,0.00,,,0.00,VWS V14.01,2013-07-16 06:21:00,
2013-07-16 02:26:00,74.5,71.4,30.24,SE,129,0.0,0.0,90,0.00,,,0.00,VWS V14.01,2013-07-16 06:26:00,
2013-07-16 02:31:00,74.6,71.5,30.24,SSW,205,0.0,1.0,90,0.00,,,0.00,VWS V14.01,2013-07-16 06:31:00,
2013-07-16 02:36:00,74.6,71.5,30.24,SSW,209,0.0,0.0,90,0.00,,,0.00,VWS V14.01,2013-07-16 06:36:00,
2013-07-16 02:41:00,74.6,71.5,30.24,SSW,211,0.0,0.0,90,0.00,,,0.00,VWS V14.01,2013-07-16 06:41:00,
2013-07-16 02:46:00,74.5,71.4,30.24,SW,214,0.0,0.0,90,0.00,,,0.00,VWS V14.01,2013-07-16 06:46:00,
2013-07-16 02:51:00,74.5,71.4,30.24,SW,214,0.0,0.0,90,0.00,,,0.00,VWS V14.01,2013-07-16 06:51:00,
2013-07-16 02:56:00,74.4,71.3,30.24,SW,218,0.0,1.0,90,0.00,,,0.00,VWS V14.01,2013-07-16 06:56:00,
2013-07-16 03:01:00,74.4,71.3,30.24,SW,233,0.0,1.0,90,0.00,,,0.00,VWS V14.01,2013-07-16 07:01:00,
2013-07-16 03:06:00,74.4,71.3,30.24,SW,233,0.0,0.0,90,0.00,,,0.00,VWS V14.01,2013-07-16 07:06:00,
2013-07-16 03:11:00,74.3,71.2,30.24,SW,233,0.0,0.0,90,0.00,,,0.00,VWS V14.01,2013-07-16 07:11:00,
2013-07-16 03:16:00,74.2,71.1,30.23,SW,233,0.0,0.0,90,0.00,,,0.00,VWS V14.01,2013-07-16 07:16:00,
2013-07-16 03:21:00,74.0,71.2,30.23,SW,233,0.0,0.0,91,0.00,,,0.00,VWS V14.01,2013-07-16 07:21:00,
2013-07-16 03:26:00,73.8,71.0,30.23,SW,233,0.0,0.0,91,0.00,,,0.00,VWS V14.01,2013-07-16 07:26:00,
2013-07-16 03:30:00,73.6,70.8,30.23,SW,233,0.0,0.0,91,0.00,,,0.00,VWS V14.01,2013-07-16 07:30:00,
2013-07-16 03:35:00,73.6,71.1,30.23,WNW,284,0.0,0.0,92,0.00,,,0.00,VWS V14.01,2013-07-16 07:35:00,
2013-07-16 03:40:00,73.6,70.8,30.23,WNW,284,0.0,0.0,91,0.00,,,0.00,VWS V14.01,2013-07-16 07:40:00,
2013-07-16 03:45:00,73.4,70.9,30.23,WNW,284,0.0,0.0,92,0.00,,,0.00,VWS V14.01,2013-07-16 07:45:00,
2013-07-16 03:50:00,73.2,70.7,30.23,WNW,284,0.0,0.0,92,0.00,,,0.00,VWS V14.01,2013-07-16 07:50:00,
2013-07-16 03:55:00,73.0,70.9,30.23,WNW,284,0.0,0.0,93,0.00,,,0.00,VWS V14.01,2013-07-16 07:55:00,
2013-07-16 04:00:00,73.0,70.9,30.23,WNW,284,0.0,0.0,93,0.00,,,0.00,VWS V14.01,2013-07-16 08:00:00,
2013-07-16 04:05:00,72.9,70.8,30.24,WNW,284,0.0,0.0,93,0.00,,,0.00,VWS V14.01,2013-07-16 08:05:00,
2013-07-16 04:10:00,72.7,70.6,30.23,WNW,284,0.0,0.0,93,0.00,,,0.00,VWS V14.01,2013-07-16 08:10:00,
2013-07-16 04:15:00,72.5,70.4,30.23,WNW,284,0.0,0.0,93,0.00,,,0.00,VWS V14.01,2013-07-16 08:15:00,
2013-07-16 04:20:00,72.3,70.2,30.23,WNW,284,0.0,0.0,93,0.00,,,0.00,VWS V14.01,2013-07-16 08:20:00,
2013-07-16 04:25:00,72.3,70.5,30.23,NW,323,0.0,1.0,94,0.00,,,0.00,VWS V14.01,2013-07-16 08:25:00,
2013-07-16 04:30:00,72.3,70.5,30.23,NW,325,0.0,1.0,94,0.00,,,0.00,VWS V14.01,2013-07-16 08:30:00,
2013-07-16 04:35:00,72.1,70.3,30.23,NW,325,0.0,0.0,94,0.00,,,0.00,VWS V14.01,2013-07-16 08:35:00,
2013-07-16 04:40:00,72.0,70.2,30.23,NW,325,0.0,0.0,94,0.00,,,0.00,VWS V14.01,2013-07-16 08:40:00,
2013-07-16 04:45:00,71.8,70.0,30.23,NW,325,0.0,0.0,94,0.00,,,0.00,VWS V14.01,2013-07-16 08:45:00,
2013-07-16 04:50:00,71.7,69.9,30.23,NW,325,0.0,0.0,94,0.00,,,0.00,VWS V14.01,2013-07-16 08:50:00,
2013-07-16 04:55:00,71.7,70.2,30.23,NW,325,0.0,0.0,95,0.00,,,0.00,VWS V14.01,2013-07-16 08:55:00,
2013-07-16 05:00:00,71.6,70.1,30.23,NW,325,0.0,0.0,95,0.00,,,0.00,VWS V14.01,2013-07-16 09:00:00,
2013-07-16 05:05:00,71.5,70.0,30.23,NW,325,0.0,0.0,95,0.00,,,0.00,VWS V14.01,2013-07-16 09:05:00,
2013-07-16 05:10:00,71.6,70.1,30.23,NW,325,0.0,0.0,95,0.00,,,0.00,VWS V14.01,2013-07-16 09:10:00,
2013-07-16 05:15:00,71.7,70.5,30.23,NW,323,0.0,1.0,96,0.00,,,0.00,VWS V14.01,2013-07-16 09:15:00,
2013-07-16 05:20:00,71.8,70.3,30.23,NW,323,0.0,1.0,95,0.00,,,0.00,VWS V14.01,2013-07-16 09:20:00,
2013-07-16 05:25:00,71.7,70.2,30.23,NW,323,0.0,1.0,95,0.00,,,0.00,VWS V14.01,2013-07-16 09:25:00,
2013-07-16 05:30:00,71.8,70.6,30.23,NW,323,0.0,1.0,96,0.00,,,0.00,VWS V14.01,2013-07-16 09:30:00,
2013-07-16 05:35:00,71.9,70.7,30.23,NW,323,0.0,0.0,96,0.00,,,0.00,VWS V14.01,2013-07-16 09:35:00,
2013-07-16 05:40:00,71.9,70.7,30.23,NW,323,0.0,0.0,96,0.00,,,0.00,VWS V14.01,2013-07-16 09:40:00,
2013-07-16 05:45:00,71.9,70.7,30.23,NW,323,0.0,0.0,96,0.00,,,0.00,VWS V14.01,2013-07-16 09:45:00,
2013-07-16 05:50:00,71.9,70.7,30.23,NW,323,0.0,0.0,96,0.00,,,0.00,VWS V14.01,2013-07-16 09:50:00,
2013-07-16 05:55:00,71.9,70.7,30.24,NW,325,0.0,0.0,96,0.00,,,0.00,VWS V14.01,2013-07-16 09:55:00,
2013-07-16 06:00:00,71.8,70.6,30.24,NW,325,0.0,0.0,96,0.00,,,0.00,VWS V14.01,2013-07-16 10:00:00,
2013-07-16 06:05:00,71.8,70.6,30.24,NW,325,0.0,0.0,96,0.00,,,0.00,VWS V14.01,2013-07-16 10:05:00,
2013-07-16 06:10:00,71.8,70.6,30.24,NW,325,0.0,0.0,96,0.00,,,0.00,VWS V14.01,2013-07-16 10:10:00,
2013-07-16 06:15:00,71.9,70.7,30.24,NW,325,0.0,0.0,96,0.00,,,0.00,VWS V14.01,2013-07-16 10:15:00,
2013-07-16 06:20:00,71.9,70.7,30.24,SW,233,0.0,0.0,96,0.00,,,0.00,VWS V14.01,2013-07-16 10:20:00,
2013-07-16 06:25:00,72.0,71.1,30.24,SW,233,0.0,0.0,97,0.00,,,0.00,VWS V14.01,2013-07-16 10:25:00,
2013-07-16 06:30:00,72.1,71.2,30.24,SW,233,0.0,0.0,97,0.00,,,0.00,VWS V14.01,2013-07-16 10:30:00,
2013-07-16 06:35:00,72.1,71.2,30.24,SW,233,0.0,0.0,97,0.00,,,0.00,VWS V14.01,2013-07-16 10:35:00,
2013-07-16 06:40:00,72.2,71.3,30.24,SW,232,0.0,0.0,97,0.00,,,0.00,VWS V14.01,2013-07-16 10:40:00,
2013-07-16 06:45:00,72.3,71.4,30.24,SW,233,0.0,1.0,97,0.00,,,0.00,VWS V14.01,2013-07-16 10:45:00,
2013-07-16 06:50:00,72.7,71.8,30.24,SW,233,0.0,1.0,97,0.00,,,0.00,VWS V14.01,2013-07-16 10:50:00,
2013-07-16 06:55:00,73.1,72.2,30.24,SW,233,0.0,1.0,97,0.00,,,0.00,VWS V14.01,2013-07-16 10:55:00,
2013-07-16 07:00:00,73.3,72.1,30.24,SW,233,0.0,1.0,96,0.00,,,0.00,VWS V14.01,2013-07-16 11:00:00,
2013-07-16 07:05:00,73.5,72.3,30.24,SW,233,0.0,0.0,96,0.00,,,0.00,VWS V14.01,2013-07-16 11:05:00,
2013-07-16 07:10:00,73.7,72.5,30.24,West,273,0.0,1.0,96,0.00,,,0.00,VWS V14.01,2013-07-16 11:10:00,
2013-07-16 07:15:00,74.1,72.9,30.24,SW,227,0.0,1.0,96,0.00,,,0.00,VWS V14.01,2013-07-16 11:15:00,
2013-07-16 07:20:00,74.5,73.3,30.25,SW,232,0.0,1.0,96,0.00,,,0.00,VWS V14.01,2013-07-16 11:20:00,
2013-07-16 07:25:00,74.8,73.3,30.25,SW,236,0.0,1.0,95,0.00,,,0.00,VWS V14.01,2013-07-16 11:25:00,
2013-07-16 07:30:00,75.0,73.2,30.25,SW,226,0.0,1.0,94,0.00,,,0.00,VWS V14.01,2013-07-16 11:30:00,
2013-07-16 07:35:00,75.3,73.5,30.25,SW,229,0.0,0.0,94,0.00,,,0.00,VWS V14.01,2013-07-16 11:35:00,
2013-07-16 07:40:00,75.8,73.6,30.25,WSW,240,0.0,1.0,93,0.00,,,0.00,VWS V14.01,2013-07-16 11:40:00,
2013-07-16 07:45:00,76.2,73.7,30.25,WSW,240,1.0,1.0,92,0.00,,,0.00,VWS V14.01,2013-07-16 11:45:00,
2013-07-16 07:50:00,76.6,74.1,30.25,WSW,240,0.0,1.0,92,0.00,,,0.00,VWS V14.01,2013-07-16 11:50:00,
2013-07-16 07:55:00,77.1,74.3,30.25,WSW,240,0.0,1.0,91,0.00,,,0.00,VWS V14.01,2013-07-16 11:55:00,
2013-07-16 08:00:00,77.4,74.6,30.25,WSW,244,0.0,1.0,91,0.00,,,0.00,VWS V14.01,2013-07-16 12:00:00,
2013-07-16 08:05:00,77.8,74.6,30.25,WSW,242,1.0,1.0,90,0.00,,,0.00,VWS V14.01,2013-07-16 12:05:00,
2013-07-16 08:10:00,78.0,74.5,30.26,SW,236,1.0,2.0,89,0.00,,,0.00,VWS V14.01,2013-07-16 12:10:00,
2013-07-16 08:15:00,78.2,74.7,30.26,WSW,237,0.0,2.0,89,0.00,,,0.00,VWS V14.01,2013-07-16 12:15:00,
2013-07-16 08:20:00,78.7,74.8,30.26,WSW,257,0.0,2.0,88,0.00,,,0.00,VWS V14.01,2013-07-16 12:20:00,
2013-07-16 08:25:00,79.1,74.9,30.26,West,279,0.0,2.0,87,0.00,,,0.00,VWS V14.01,2013-07-16 12:25:00,
2013-07-16 08:30:00,79.7,75.2,30.26,NE,37,0.0,2.0,86,0.00,,,0.00,VWS V14.01,2013-07-16 12:30:00,
2013-07-16 08:35:00,80.0,74.0,30.25,NNE,15,0.0,2.0,82,0.00,,,0.00,VWS V14.01,2013-07-16 12:35:00,
2013-07-16 08:40:00,80.3,74.3,30.26,WNW,302,1.0,2.0,82,0.00,,,0.00,VWS V14.01,2013-07-16 12:40:00,
2013-07-16 08:45:00,80.6,74.2,30.26,West,275,1.0,2.0,81,0.00,,,0.00,VWS V14.01,2013-07-16 12:45:00,
2013-07-16 08:50:00,80.9,74.2,30.26,WNW,299,2.0,2.0,80,0.00,,,0.00,VWS V14.01,2013-07-16 12:50:00,
2013-07-16 08:55:00,81.3,73.8,30.26,NW,310,0.0,2.0,78,0.00,,,0.00,VWS V14.01,2013-07-16 12:55:00,
2013-07-16 09:00:00,82.0,74.1,30.26,NW,314,1.0,2.0,77,0.00,,,0.00,VWS V14.01,2013-07-16 13:00:00,
2013-07-16 09:05:00,82.4,73.7,30.26,West,274,1.0,3.0,75,0.00,,,0.00,VWS V14.01,2013-07-16 13:05:00,
2013-07-16 09:10:00,82.5,74.2,30.26,NW,309,1.0,3.0,76,0.00,,,0.00,VWS V14.01,2013-07-16 13:10:00,
2013-07-16 09:15:00,82.5,73.8,30.26,NW,320,1.0,3.0,75,0.00,,,0.00,VWS V14.01,2013-07-16 13:15:00,
2013-07-16 09:20:00,82.4,74.1,30.26,NW,315,3.0,4.0,76,0.00,,,0.00,VWS V14.01,2013-07-16 13:20:00,
2013-07-16 09:25:00,82.4,74.9,30.26,NNW,341,1.0,4.0,78,0.00,,,0.00,VWS V14.01,2013-07-16 13:25:00,
2013-07-16 09:30:00,83.1,75.2,30.25,NW,315,2.0,4.0,77,0.00,,,0.00,VWS V14.01,2013-07-16 13:30:00,
2013-07-16 09:35:00,83.8,75.8,30.26,NW,306,3.0,3.0,77,0.00,,,0.00,VWS V14.01,2013-07-16 13:35:00,
2013-07-16 09:40:00,83.8,75.0,30.25,West,281,1.0,3.0,75,0.00,,,0.00,VWS V14.01,2013-07-16 13:40:00,
2013-07-16 09:45:00,83.2,74.8,30.25,WSW,257,2.0,4.0,76,0.00,,,0.00,VWS V14.01,2013-07-16 13:45:00,
2013-07-16 09:50:00,83.2,74.8,30.25,WNW,294,4.0,6.0,76,0.00,,,0.00,VWS V14.01,2013-07-16 13:50:00,
2013-07-16 09:55:00,83.0,74.7,30.25,West,261,2.0,6.0,76,0.00,,,0.00,VWS V14.01,2013-07-16 13:55:00,
2013-07-16 10:00:00,83.4,75.4,30.26,NNW,344,3.0,6.0,77,0.00,,,0.00,VWS V14.01,2013-07-16 14:00:00,
2013-07-16 10:05:00,83.6,74.4,30.25,NW,305,3.0,3.0,74,0.00,,,0.00,VWS V14.01,2013-07-16 14:05:00,
2013-07-16 10:10:00,84.0,75.2,30.25,WNW,296,3.0,5.0,75,0.00,,,0.00,VWS V14.01,2013-07-16 14:10:00,
2013-07-16 10:15:00,83.9,75.1,30.25,West,279,1.0,5.0,75,0.00,,,0.00,VWS V14.01,2013-07-16 14:15:00,
2013-07-16 10:20:00,84.4,74.8,30.25,SSE,147,1.0,5.0,73,0.00,,,0.00,VWS V14.01,2013-07-16 14:20:00,
2013-07-16 10:25:00,85.5,75.9,30.25,WSW,256,1.0,5.0,73,0.00,,,0.00,VWS V14.01,2013-07-16 14:25:00,
2013-07-16 10:30:00,85.8,75.7,30.25,WSW,244,2.0,5.0,72,0.00,,,0.00,VWS V14.01,2013-07-16 14:30:00,
2013-07-16 10:35:00,85.8,75.3,30.25,WNW,283,3.0,4.0,71,0.00,,,0.00,VWS V14.01,2013-07-16 14:35:00,
2013-07-16 10:40:00,85.9,75.0,30.25,West,267,1.0,4.0,70,0.00,,,0.00,VWS V14.01,2013-07-16 14:40:00,
2013-07-16 10:45:00,85.9,74.1,30.25,WNW,296,2.0,5.0,68,0.00,,,0.00,VWS V14.01,2013-07-16 14:45:00,
2013-07-16 10:50:00,85.9,74.6,30.25,WNW,283,0.0,5.0,69,0.00,,,0.00,VWS V14.01,2013-07-16 14:50:00,
2013-07-16 10:55:00,86.6,73.9,30.25,NNW,333,1.0,5.0,66,0.00,,,0.00,VWS V14.01,2013-07-16 14:55:00,
2013-07-16 11:00:00,86.6,74.3,30.25,WNW,284,1.0,6.0,67,0.00,,,0.00,VWS V14.01,2013-07-16 15:00:00,
2013-07-16 11:05:00,86.3,74.1,30.25,WNW,294,3.0,4.0,67,0.00,,,0.00,VWS V14.01,2013-07-16 15:05:00,
2013-07-16 11:10:00,86.5,74.2,30.25,WNW,294,1.0,4.0,67,0.00,,,0.00,VWS V14.01,2013-07-16 15:10:00,
2013-07-16 11:15:00,86.5,73.3,30.25,NW,315,1.0,5.0,65,0.00,,,0.00,VWS V14.01,2013-07-16 15:15:00,
2013-07-16 11:20:00,86.4,74.2,30.24,West,269,2.0,5.0,67,0.00,,,0.00,VWS V14.01,2013-07-16 15:20:00,
2013-07-16 11:25:00,86.8,75.0,30.24,WSW,237,1.0,5.0,68,0.00,,,0.00,VWS V14.01,2013-07-16 15:25:00,
2013-07-16 11:30:00,87.4,75.1,30.24,WSW,250,0.0,5.0,67,0.00,,,0.00,VWS V14.01,2013-07-16 15:30:00,
2013-07-16 11:35:00,87.9,74.7,30.24,NW,310,2.0,4.0,65,0.00,,,0.00,VWS V14.01,2013-07-16 15:35:00,
2013-07-16 11:40:00,88.3,75.1,30.24,WNW,299,2.0,4.0,65,0.00,,,0.00,VWS V14.01,2013-07-16 15:40:00,
2013-07-16 11:45:00,88.4,74.2,30.24,West,275,1.0,4.0,63,0.00,,,0.00,VWS V14.01,2013-07-16 15:45:00,
2013-07-16 11:50:00,88.8,74.6,30.24,WNW,302,2.0,4.0,63,0.00,,,0.00,VWS V14.01,2013-07-16 15:50:00,
2013-07-16 11:55:00,88.7,73.5,30.24,North,360,0.0,4.0,61,0.00,,,0.00,VWS V14.01,2013-07-16 15:55:00,
2013-07-16 12:00:00,89.0,73.8,30.24,SSW,192,0.0,4.0,61,0.00,,,0.00,VWS V14.01,2013-07-16 16:00:00,
2013-07-16 12:05:00,89.0,73.3,30.24,NW,321,1.0,3.0,60,0.00,,,0.00,VWS V14.01,2013-07-16 16:05:00,
2013-07-16 12:10:00,89.1,73.9,30.24,NW,311,2.0,3.0,61,0.00,,,0.00,VWS V14.01,2013-07-16 16:10:00,
2013-07-16 12:15:00,89.0,74.3,30.23,NW,321,2.0,5.0,62,0.00,,,0.00,VWS V14.01,2013-07-16 16:15:00,
2013-07-16 12:20:00,89.0,74.3,30.23,WSW,240,1.0,5.0,62,0.00,,,0.00,VWS V14.01,2013-07-16 16:20:00,
2013-07-16 12:25:00,89.5,74.3,30.23,NW,304,2.0,5.0,61,0.00,,,0.00,VWS V14.01,2013-07-16 16:25:00,
2013-07-16 12:30:00,89.6,73.9,30.23,NW,307,1.0,5.0,60,0.00,,,0.00,VWS V14.01,2013-07-16 16:30:00,
2013-07-16 12:35:00,89.7,73.0,30.23,West,278,0.0,2.0,58,0.00,,,0.00,VWS V14.01,2013-07-16 16:35:00,
2013-07-16 12:40:00,90.3,73.5,30.23,WNW,284,4.0,4.0,58,0.00,,,0.00,VWS V14.01,2013-07-16 16:40:00,
2013-07-16 12:45:00,90.0,73.8,30.23,West,276,1.0,4.0,59,0.00,,,0.00,VWS V14.01,2013-07-16 16:45:00,
2013-07-16 12:50:00,89.9,73.7,30.23,WNW,303,5.0,5.0,59,0.00,,,0.00,VWS V14.01,2013-07-16 16:50:00,
2013-07-16 12:55:00,89.5,72.8,30.23,NW,304,2.0,5.0,58,0.00,,,0.00,VWS V14.01,2013-07-16 16:55:00,
2013-07-16 13:00:00,89.8,72.0,30.23,NNE,22,0.0,5.0,56,0.00,,,0.00,VWS V14.01,2013-07-16 17:00:00,
2013-07-16 13:05:00,90.7,73.4,30.22,WNW,299,2.0,2.0,57,0.00,,,0.00,VWS V14.01,2013-07-16 17:05:00,
2013-07-16 13:10:00,91.2,73.8,30.22,SSE,148,1.0,2.0,57,0.00,,,0.00,VWS V14.01,2013-07-16 17:10:00,
2013-07-16 13:15:00,91.6,73.7,30.22,NE,34,1.0,2.0,56,0.00,,,0.00,VWS V14.01,2013-07-16 17:15:00,
2013-07-16 13:20:00,91.8,72.2,30.22,NW,319,1.0,5.0,53,0.00,,,0.00,VWS V14.01,2013-07-16 17:20:00,
2013-07-16 13:25:00,91.0,74.2,30.22,ENE,61,1.0,5.0,58,0.00,,,0.00,VWS V14.01,2013-07-16 17:25:00,
2013-07-16 13:30:00,91.1,72.7,30.22,NW,311,5.0,5.0,55,0.00,,,0.00,VWS V14.01,2013-07-16 17:30:00,
2013-07-16 13:35:00,90.6,72.2,30.22,NNE,20,0.0,3.0,55,0.00,,,0.00,VWS V14.01,2013-07-16 17:35:00,
2013-07-16 13:40:00,90.8,72.4,30.21,South,173,0.0,3.0,55,0.00,,,0.00,VWS V14.01,2013-07-16 17:40:00,
2013-07-16 13:45:00,91.7,72.2,30.21,SSE,164,1.0,3.0,53,0.00,,,0.00,VWS V14.01,2013-07-16 17:45:00,
2013-07-16 13:50:00,92.4,72.8,30.21,WNW,302,1.0,4.0,53,0.00,,,0.00,VWS V14.01,2013-07-16 17:50:00,
2013-07-16 13:55:00,91.9,73.4,30.21,NNW,331,1.0,4.0,55,0.00,,,0.00,VWS V14.01,2013-07-16 17:55:00,
2013-07-16 14:00:00,91.9,73.4,30.21,WNW,298,4.0,4.0,55,0.00,,,0.00,VWS V14.01,2013-07-16 18:00:00,
2013-07-16 14:05:00,91.7,73.8,30.20,NW,309,1.0,1.0,56,0.00,,,0.00,VWS V14.01,2013-07-16 18:05:00,
2013-07-16 14:10:00,91.6,73.2,30.20,NW,316,1.0,5.0,55,0.00,,,0.00,VWS V14.01,2013-07-16 18:10:00,
2013-07-16 14:15:00,91.3,73.4,30.20,SE,136,0.0,5.0,56,0.00,,,0.00,VWS V14.01,2013-07-16 18:15:00,
2013-07-16 14:20:00,91.2,73.3,30.20,West,268,0.0,5.0,56,0.00,,,0.00,VWS V14.01,2013-07-16 18:20:00,
2013-07-16 14:25:00,91.8,74.9,30.20,ENE,63,0.0,5.0,58,0.00,,,0.00,VWS V14.01,2013-07-16 18:25:00,
2013-07-16 14:30:00,91.7,72.7,30.20,WNW,302,1.0,5.0,54,0.00,,,0.00,VWS V14.01,2013-07-16 18:30:00,
2013-07-16 14:35:00,91.3,73.9,30.20,WSW,246,2.0,2.0,57,0.00,,,0.00,VWS V14.01,2013-07-16 18:35:00,
2013-07-16 14:40:00,91.6,74.2,30.19,West,277,0.0,2.0,57,0.00,,,0.00,VWS V14.01,2013-07-16 18:40:00,
2013-07-16 14:45:00,92.1,73.1,30.19,West,268,1.0,3.0,54,0.00,,,0.00,VWS V14.01,2013-07-16 18:45:00,
2013-07-16 14:50:00,91.2,72.8,30.19,NW,310,2.0,5.0,55,0.00,,,0.00,VWS V14.01,2013-07-16 18:50:00,
2013-07-16 14:55:00,90.9,72.0,30.19,East,88,2.0,5.0,54,0.00,,,0.00,VWS V14.01,2013-07-16 18:55:00,
2013-07-16 15:00:00,90.9,73.6,30.19,WNW,296,3.0,5.0,57,0.00,,,0.00,VWS V14.01,2013-07-16 19:00:00,
2013-07-16 15:05:00,90.8,73.5,30.19,NNE,16,4.0,4.0,57,0.00,,,0.00,VWS V14.01,2013-07-16 19:05:00,
2013-07-16 15:10:00,90.8,74.0,30.19,West,269,1.0,4.0,58,0.00,,,0.00,VWS V14.01,2013-07-16 19:10:00,
2013-07-16 15:15:00,91.0,72.6,30.18,SSW,210,1.0,4.0,55,0.00,,,0.00,VWS V14.01,2013-07-16 19:15:00,
2013-07-16 15:20:00,91.5,73.6,30.18,NNE,30,1.0,4.0,56,0.00,,,0.00,VWS V14.01,2013-07-16 19:20:00,
2013-07-16 15:25:00,91.7,73.8,30.18,NE,36,2.0,4.0,56,0.00,,,0.00,VWS V14.01,2013-07-16 19:25:00,
2013-07-16 15:30:00,90.8,72.4,30.18,East,85,1.0,6.0,55,0.00,,,0.00,VWS V14.01,2013-07-16 19:30:00,
2013-07-16 15:35:00,90.9,74.1,30.18,West,271,1.0,2.0,58,0.00,,,0.00,VWS V14.01,2013-07-16 19:35:00,
2013-07-16 15:40:00,91.1,74.3,30.18,West,267,1.0,3.0,58,0.00,,,0.00,VWS V14.01,2013-07-16 19:40:00,
2013-07-16 15:45:00,91.5,74.7,30.18,NNE,19,1.0,3.0,58,0.00,,,0.00,VWS V14.01,2013-07-16 19:45:00,
2013-07-16 15:50:00,91.4,73.5,30.18,NW,307,2.0,4.0,56,0.00,,,0.00,VWS V14.01,2013-07-16 19:50:00,
2013-07-16 15:55:00,91.1,74.3,30.18,West,276,1.0,4.0,58,0.00,,,0.00,VWS V14.01,2013-07-16 19:55:00,
2013-07-16 16:00:00,91.1,74.3,30.18,SW,215,0.0,4.0,58,0.00,,,0.00,VWS V14.01,2013-07-16 20:00:00,
2013-07-16 16:05:00,91.1,74.8,30.18,West,275,1.0,2.0,59,0.00,,,0.00,VWS V14.01,2013-07-16 20:05:00,
2013-07-16 16:10:00,91.2,74.4,30.17,NNE,24,1.0,4.0,58,0.00,,,0.00,VWS V14.01,2013-07-16 20:10:00,
2013-07-16 16:15:00,91.4,74.6,30.17,WSW,237,2.0,4.0,58,0.00,,,0.00,VWS V14.01,2013-07-16 20:15:00,
2013-07-16 16:20:00,90.9,74.1,30.17,WSW,244,0.0,4.0,58,0.00,,,0.00,VWS V14.01,2013-07-16 20:20:00,
2013-07-16 16:25:00,91.1,75.8,30.17,WNW,290,1.0,4.0,61,0.00,,,0.00,VWS V14.01,2013-07-16 20:25:00,
2013-07-16 16:30:00,91.5,75.2,30.17,SW,232,1.0,4.0,59,0.00,,,0.00,VWS V14.01,2013-07-16 20:30:00,
2013-07-16 16:35:00,91.6,74.7,30.17,WNW,302,3.0,4.0,58,0.00,,,0.00,VWS V14.01,2013-07-16 20:35:00,
2013-07-16 16:40:00,91.4,75.1,30.17,SW,230,1.0,4.0,59,0.00,,,0.00,VWS V14.01,2013-07-16 20:40:00,
2013-07-16 16:45:00,91.1,74.8,30.17,WNW,294,2.0,4.0,59,0.00,,,0.00,VWS V14.01,2013-07-16 20:45:00,
2013-07-16 16:50:00,91.3,75.5,30.17,SW,226,3.0,4.0,60,0.00,,,0.00,VWS V14.01,2013-07-16 20:50:00,
2013-07-16 16:55:00,91.1,75.3,30.17,WSW,246,0.0,4.0,60,0.00,,,0.00,VWS V14.01,2013-07-16 20:55:00,
2013-07-16 17:00:00,91.0,75.2,30.17,WSW,244,2.0,4.0,60,0.00,,,0.00,VWS V14.01,2013-07-16 21:00:00,
2013-07-16 17:05:00,90.8,76.0,30.16,WSW,245,1.0,2.0,62,0.00,,,0.00,VWS V14.01,2013-07-16 21:05:00,
2013-07-16 17:10:00,90.8,75.0,30.16,SW,218,1.0,2.0,60,0.00,,,0.00,VWS V14.01,2013-07-16 21:10:00,
2013-07-16 17:15:00,91.1,75.8,30.16,WSW,249,1.0,2.0,61,0.00,,,0.00,VWS V14.01,2013-07-16 21:15:00,
2013-07-16 17:20:00,91.3,75.5,30.16,WSW,258,0.0,2.0,60,0.00,,,0.00,VWS V14.01,2013-07-16 21:20:00,
2013-07-16 17:25:00,91.0,75.7,30.16,WNW,292,2.0,2.0,61,0.00,,,0.00,VWS V14.01,2013-07-16 21:25:00,
2013-07-16 17:30:00,90.4,74.6,30.16,West,269,0.0,2.0,60,0.00,,,0.00,VWS V14.01,2013-07-16 21:30:00,
2013-07-16 17:35:00,89.9,75.1,30.16,WSW,248,0.0,0.0,62,0.00,,,0.00,VWS V14.01,2013-07-16 21:35:00,
2013-07-16 17:40:00,89.3,75.1,30.16,SW,232,0.0,2.0,63,0.00,,,0.00,VWS V14.01,2013-07-16 21:40:00,
2013-07-16 17:45:00,89.0,75.2,30.16,SW,232,0.0,2.0,64,0.00,,,0.00,VWS V14.01,2013-07-16 21:45:00,
2013-07-16 17:50:00,89.5,75.7,30.16,SW,236,1.0,2.0,64,0.00,,,0.00,VWS V14.01,2013-07-16 21:50:00,
2013-07-16 17:55:00,89.9,75.6,30.16,WSW,256,0.0,2.0,63,0.00,,,0.00,VWS V14.01,2013-07-16 21:55:00,
2013-07-16 18:00:00,90.2,74.9,30.16,WSW,250,0.0,2.0,61,0.00,,,0.00,VWS V14.01,2013-07-16 22:00:00,
2013-07-16 18:05:00,90.4,74.6,30.16,WSW,250,1.0,1.0,60,0.00,,,0.00,VWS V14.01,2013-07-16 22:05:00,
2013-07-16 18:10:00,90.2,74.9,30.15,SW,219,0.0,1.0,61,0.00,,,0.00,VWS V14.01,2013-07-16 22:10:00,
2013-07-16 18:15:00,90.0,75.7,30.16,SSE,160,0.0,2.0,63,0.00,,,0.00,VWS V14.01,2013-07-16 22:15:00,
2013-07-16 18:20:00,90.1,75.3,30.16,WSW,240,2.0,2.0,62,0.00,,,0.00,VWS V14.01,2013-07-16 22:20:00,
2013-07-16 18:25:00,90.0,75.2,30.15,SW,221,0.0,3.0,62,0.00,,,0.00,VWS V14.01,2013-07-16 22:25:00,
2013-07-16 18:30:00,90.3,76.5,30.16,WSW,256,1.0,3.0,64,0.00,,,0.00,VWS V14.01,2013-07-16 22:30:00,
2013-07-16 18:35:00,90.5,76.2,30.16,WSW,250,0.0,1.0,63,0.00,,,0.00,VWS V14.01,2013-07-16 22:35:00,
2013-07-16 18:40:00,90.4,76.1,30.16,WSW,241,0.0,2.0,63,0.00,,,0.00,VWS V14.01,2013-07-16 22:40:00,
2013-07-16 18:45:00,90.2,74.9,30.16,WSW,244,1.0,2.0,61,0.00,,,0.00,VWS V14.01,2013-07-16 22:45:00,
2013-07-16 18:50:00,89.9,75.6,30.16,WSW,240,0.0,2.0,63,0.00,,,0.00,VWS V14.01,2013-07-16 22:50:00,
2013-07-16 18:55:00,89.7,75.9,30.16,West,276,1.0,2.0,64,0.00,,,0.00,VWS V14.01,2013-07-16 22:55:00,
2013-07-16 19:00:00,88.9,76.5,30.16,WNW,284,0.0,2.0,67,0.00,,,0.00,VWS V14.01,2013-07-16 23:00:00,
2013-07-16 19:05:00,88.1,77.1,30.16,WSW,246,0.0,0.0,70,0.00,,,0.00,VWS V14.01,2013-07-16 23:05:00,
2013-07-16 19:10:00,87.3,76.8,30.16,WNW,283,1.0,3.0,71,0.02,,,0.02,VWS V14.01,2013-07-16 23:10:00,
2013-07-16 19:15:00,85.7,78.4,30.16,WNW,290,0.0,3.0,79,0.12,,,0.12,VWS V14.01,2013-07-16 23:15:00,
2013-07-16 19:20:00,83.4,76.2,30.16,WSW,245,0.0,3.0,79,0.24,,,0.24,VWS V14.01,2013-07-16 23:20:00,
2013-07-16 19:25:00,81.5,76.2,30.18,NE,55,5.0,5.0,84,0.29,,,0.29,VWS V14.01,2013-07-16 23:25:00,
2013-07-16 19:30:00,79.4,74.8,30.18,NE,49,5.0,13.0,86,0.56,,,0.56,VWS V14.01,2013-07-16 23:30:00,
2013-07-16 19:35:00,77.3,72.8,30.19,North,349,5.0,6.0,86,0.90,,,0.90,VWS V14.01,2013-07-16 23:35:00,
2013-07-16 19:40:00,75.5,71.0,30.19,NW,311,12.0,15.0,86,1.06,,,1.06,VWS V14.01,2013-07-16 23:40:00,
2013-07-16 19:45:00,74.2,71.1,30.20,West,266,3.0,16.0,90,1.37,,,1.37,VWS V14.01,2013-07-16 23:45:00,
2013-07-16 19:50:00,72.9,70.1,30.20,WSW,253,5.0,16.0,91,1.63,,,1.63,VWS V14.01,2013-07-16 23:50:00,
2013-07-16 19:55:00,72.3,70.2,30.19,WSW,239,1.0,16.0,93,1.71,,,1.71,VWS V14.01,2013-07-16 23:55:00,
2013-07-16 20:00:00,72.4,70.6,30.20,West,273,3.0,16.0,94,1.74,,,1.74,VWS V14.01,2013-07-17 00:00:00,
2013-07-16 20:05:00,72.2,69.8,30.20,WSW,254,3.0,4.0,92,1.74,,,1.74,VWS V14.01,2013-07-17 00:05:00,
2013-07-16 20:10:00,72.2,69.8,30.20,West,259,1.0,6.0,92,1.74,,,1.74,VWS V14.01,2013-07-17 00:10:00,
2013-07-16 20:15:00,72.1,68.7,30.20,West,268,1.0,6.0,89,1.74,,,1.74,VWS V14.01,2013-07-17 00:15:00,
2013-07-16 20:20:00,72.0,67.6,30.19,WSW,250,1.0,6.0,86,1.74,,,1.74,VWS V14.01,2013-07-17 00:20:00,
2013-07-16 20:25:00,71.7,68.0,30.20,WNW,289,2.0,6.0,88,1.74,,,1.74,VWS V14.01,2013-07-17 00:25:00,
2013-07-16 20:30:00,71.6,68.5,30.20,SW,215,3.0,6.0,90,1.74,,,1.74,VWS V14.01,2013-07-17 00:30:00,
2013-07-16 20:35:00,71.6,68.8,30.19,WSW,254,1.0,1.0,91,0.95,,,1.74,VWS V14.01,2013-07-17 00:35:00,
2013-07-16 20:40:00,71.6,68.8,30.19,NW,311,0.0,1.0,91,0.95,,,1.74,VWS V14.01,2013-07-17 00:40:00,
2013-07-16 20:45:00,71.7,69.3,30.20,West,261,1.0,1.0,92,0.95,,,1.74,VWS V14.01,2013-07-17 00:45:00,
2013-07-16 20:50:00,71.8,69.7,30.19,NW,321,1.0,1.0,93,0.95,,,1.74,VWS V14.01,2013-07-17 00:50:00,
2013-07-16 20:55:00,71.9,69.4,30.19,NW,314,0.0,2.0,92,0.95,,,1.74,VWS V14.01,2013-07-17 00:55:00,
2013-07-16 21:00:00,71.9,69.1,30.18,SW,234,1.0,2.0,91,0.95,,,1.74,VWS V14.01,2013-07-17 01:00:00,
2013-07-16 21:05:00,72.0,69.6,30.18,WSW,250,0.0,0.0,92,0.00,,,1.74,VWS V14.01,2013-07-17 01:05:00,
2013-07-16 21:10:00,72.0,69.6,30.18,WNW,283,0.0,1.0,92,0.00,,,1.74,VWS V14.01,2013-07-17 01:10:00,
2013-07-16 21:15:00,72.1,70.0,30.18,NNE,32,0.0,1.0,93,0.00,,,1.74,VWS V14.01,2013-07-17 01:15:00,
2013-07-16 21:20:00,72.0,69.9,30.17,NNE,32,0.0,1.0,93,0.00,,,1.74,VWS V14.01,2013-07-17 01:20:00,
2013-07-16 21:25:00,72.2,70.4,30.18,WNW,292,0.0,1.0,94,0.00,,,1.74,VWS V14.01,2013-07-17 01:25:00,
2013-07-16 21:30:00,72.3,70.5,30.18,NNE,24,0.0,1.0,94,0.00,,,1.74,VWS V14.01,2013-07-17 01:30:00,
2013-07-16 21:35:00,72.6,71.1,30.18,SW,236,0.0,1.0,95,0.00,,,1.74,VWS V14.01,2013-07-17 01:35:00,
2013-07-16 21:40:00,72.6,70.8,30.18,SW,236,0.0,1.0,94,0.00,,,1.74,VWS V14.01,2013-07-17 01:40:00,
2013-07-16 21:45:00,72.5,70.7,30.18,WSW,237,0.0,1.0,94,0.00,,,1.74,VWS V14.01,2013-07-17 01:45:00,
2013-07-16 21:50:00,72.3,70.5,30.18,WSW,237,0.0,1.0,94,0.00,,,1.74,VWS V14.01,2013-07-17 01:50:00,
2013-07-16 21:55:00,72.7,71.2,30.18,NNE,23,1.0,1.0,95,0.00,,,1.74,VWS V14.01,2013-07-17 01:55:00,
2013-07-16 22:00:00,73.0,71.5,30.18,NNE,26,0.0,1.0,95,0.00,,,1.74,VWS V14.01,2013-07-17 02:00:00,
2013-07-16 22:05:00,73.0,71.5,30.19,NNW,338,3.0,4.0,95,0.00,,,1.74,VWS V14.01,2013-07-17 02:05:00,
2013-07-16 22:10:00,72.7,71.2,30.19,North,350,0.0,4.0,95,0.00,,,1.74,VWS V14.01,2013-07-17 02:10:00,
2013-07-16 22:15:00,72.5,70.7,30.20,North,11,1.0,4.0,94,0.00,,,1.74,VWS V14.01,2013-07-17 02:15:00,
2013-07-16 22:20:00,72.5,70.7,30.19,NNE,12,0.0,4.0,94,0.00,,,1.74,VWS V14.01,2013-07-17 02:20:00,
2013-07-16 22:25:00,72.5,70.7,30.19,North,11,0.0,4.0,94,0.00,,,1.74,VWS V14.01,2013-07-17 02:25:00,
2013-07-16 22:30:00,72.6,70.8,30.20,NNE,13,0.0,4.0,94,0.00,,,1.74,VWS V14.01,2013-07-17 02:30:00,
2013-07-16 22:35:00,72.8,71.3,30.20,NNE,13,0.0,0.0,95,0.00,,,1.74,VWS V14.01,2013-07-17 02:35:00,
2013-07-16 22:40:00,73.0,71.5,30.19,NNE,17,0.0,0.0,95,0.00,,,1.74,VWS V14.01,2013-07-17 02:40:00,
2013-07-16 22:45:00,72.9,71.4,30.19,NNE,17,0.0,0.0,95,0.00,,,1.74,VWS V14.01,2013-07-17 02:45:00,
2013-07-16 22:50:00,72.9,71.4,30.19,NNE,17,0.0,0.0,95,0.00,,,1.74,VWS V14.01,2013-07-17 02:50:00,
2013-07-16 22:55:00,73.2,72.0,30.19,NNE,30,0.0,0.0,96,0.00,,,1.74,VWS V14.01,2013-07-17 02:55:00,
2013-07-16 23:00:00,73.3,72.1,30.19,NNE,32,0.0,0.0,96,0.00,,,1.74,VWS V14.01,2013-07-17 03:00:00,
2013-07-16 23:05:00,73.4,72.2,30.19,NNE,32,0.0,0.0,96,0.00,,,1.74,VWS V14.01,2013-07-17 03:05:00,
2013-07-16 23:10:00,73.5,72.3,30.18,NNE,32,0.0,0.0,96,0.00,,,1.74,VWS V14.01,2013-07-17 03:10:00,
2013-07-16 23:15:00,73.5,72.3,30.18,NNE,32,0.0,0.0,96,0.00,,,1.74,VWS V14.01,2013-07-17 03:15:00,
2013-07-16 23:20:00,73.6,72.4,30.18,NNE,32,0.0,0.0,96,0.00,,,1.74,VWS V14.01,2013-07-17 03:20:00,
2013-07-16 23:25:00,73.8,72.6,30.18,NNE,32,0.0,0.0,96,0.00,,,1.74,VWS V14.01,2013-07-17 03:25:00,
2013-07-16 23:30:00,74.1,72.9,30.18,NNE,32,0.0,0.0,96,0.00,,,1.74,VWS V14.01,2013-07-17 03:30:00,
2013-07-16 23:35:00,74.2,73.0,30.18,North,355,0.0,0.0,96,0.00,,,1.74,VWS V14.01,2013-07-17 03:35:00,
2013-07-16 23:40:00,74.3,73.1,30.18,North,355,0.0,0.0,96,0.00,,,1.74,VWS V14.01,2013-07-17 03:40:00,
2013-07-16 23:45:00,74.4,73.2,30.18,North,360,0.0,0.0,96,0.00,,,1.74,VWS V14.01,2013-07-17 03:45:00,
2013-07-16 23:50:00,74.4,73.2,30.18,North,355,0.0,0.0,96,0.00,,,1.74,VWS V14.01,2013-07-17 03:50:00,
2013-07-16 23:55:00,74.7,73.5,30.17,North,360,0.0,0.0,96,0.00,,,1.74,VWS V14.01,2013-07-17 03:55:00,